Location: Orange
(33.2833°S, 149.1000°E)
Time: 21:35:00
(UTC+11:00)

Envisat - Pass Details

Date: 14 December 2021
Orbit: 764 x 766 km, 98.2° (Epoch: 18 January)

Event Time Altitude Azimuth Distance (km) Brightness Sun altitude
Rises 04:02:25 0° 56° (ENE) 3,225 6.4 -18.5°
Reaches altitude 10° 04:05:33 10° 77° (ENE) 2,308 5.9 -18.0°
Maximum altitude 04:08:35 16° 114° (ESE) 1,924 6.0 -17.6°
Drops below altitude 10° 04:11:38 10° 151° (SSE) 2,325 6.7 -17.1°
Sets 04:14:47 0° 171° (S) 3,261 7.1 -16.6°
